Tracking 19903 objects as of 16-Oct-2019
HD Live streaming from Space Station
objects crossing your sky now

NOAA 16 DEB

Track NOAA 16 DEB now!
10-day predictions


NORAD ID: 41498
Int'l Code: 2000-055LW
Perigee: 834.9 km
Apogee: 857.2 km
Inclination: 98.9 °
Period: 101.7 minutes
Semi major axis: 7217 km
RCS: Unknown
Launch date: September 21, 2000
Source: United States (US)
Launch site: AIR FORCE WESTERN TEST RANGE (AFWTR)

Note: This is SATELLITE DEBRIS
aabbcc
Your satellite tracking list
Your tracking list is empty




NASA's NSSDC Master Catalog

Two Line Element Set (TLE):
1 41498U 00055LW  19288.48632488  .00000135  00000-0  91256-4 0  9993
2 41498  98.9098  18.1727 0015449  76.1459 284.1433 14.15998949186191
Source of the keplerian elements: AFSPC